Showing default

DIAPASON (D1-A), 2016

Orbit data source: Space-Track

DIAPASON (D1-A), 2016 is a payload satellite owned by CNES (FR) in LEO that was launched on Thu, 17 Feb 1966 UTC via a DIAMANT A launch vehicle from the Hamma Guira Space Track Range (HGSTR). Payload-class satellites include a variety of spacecraft equipped with specific instruments for various scientific and technological missions. These include communications satellites like Starlink; space stations such as the ISS; scientific satellites like the Hubble; Earth observation satellites from companies like Planet Labs, Umbra, and HawkEye 360; GPS; miniature CubeSats for education and research; and military/defense satellites.

Loading next visibility...
Identifier
2016, 1966-013A
Orbit
LEO
Country
Flag of FRFR
Related business
Manufacturer
CNES
Mission
Spacecraft
Bus & Motor
D-1, Unknown motor
Mass
19 kg wet, 19 kg dry
Launch date (UTC)
1966-02-17 (60 years ago)
Launch vehicle
DIAMANT A
Launch site
Hamma Guira Space Track Range (HGSTR)
Object type
Payload
Rocket body
Debris
Shape & HBR
Unknown
Radar Cross Section
Large (>1 m²)

Expand to show TLE details & history
Last TLE update: 11 hours ago

TLE from 11 hours ago
0 DIAPASON (D1-A)
1 02016U 66013A   26102.09169162  .00000431  00000-0  12343-3 0  9994
2 02016  34.0916 247.0752 1158035 344.0244  12.6591 12.66481114732061
Epoch: 2026-04-12T02:12Z
TLE epoch observation values (Epoch: 2026-04-12T02:12:02.155Z)
Latitude
-0.00002°
Longitude
13.76457°
Altitude
523.004 km
Speed
8.018 km/s
True Right ascension
16h 28m 18s
True Declination
0° 00' 00"
Sunlit
Object was in full shadow at epoch
Visualization orbit readout
Latitude
Unknown
Longitude
Unknown
Altitude
Unknown
Speed
Unknown
Apparent Right ascension
Unknown
Apparent Declination
Unknown
Sunlit
N/A
Visualization observer readout
Local Sidereal Time
19:58:35
Azimuth
Unknown
Elevation
Unknown
Doppler factor
Unknown
Orbital elements
Apogee altitude
2,300.032 km
Perigee altitude
498.707 km
Semi-major axis
7,777.507 km
Eccentricity
0.1158
Inclination
34.0916°
RAAN
247.0752°
Arg. of periapsis
344.0244°
True anomaly
16.03976°
Mean anomaly
12.6591°
Eccentric anomaly
14.29769°
Mean motion
3.16434 °/min
Orbital period
113.77 mins
BSTAR
0.00012343
Loading maneuver chart data...
Computing Atmospheric mass density...

Documentation

Showing up to 5 results
|